Location: Stara Lesna
(49.1528°N, 20.2911°E)
Time: 10:02:55
(UTC+02:00)

Spot 4 Rocket - Pass Details

Date: 13 July 2020
Orbit: 777 x 781 km, 98.7° (Epoch: 05 August)

Event Time Altitude Azimuth Distance (km) Brightness Sun altitude
Rises 03:54:48 0° 15° (NNE) 3,274 8.5 -7.4°
Reaches altitude 10° 03:57:08 10° 15° (NNE) 2,342 7.6 -7.2°
Maximum altitude 04:02:19 87° 105° (ESE) 788 4.1 -6.6°
Drops below altitude 10° 04:07:28 10° 195° (SSW) 2,328 6.0 -6.0°
Enters shadow 04:09:12 - 196° (SSW) 3,027 6.6 -5.8°
